Welcome to the New NWS' Forecast!
Most changes are behind the scenes, but click here for differences you might notice.
Latest weather observations around

Joplin, Joplin Regional Airport (KJLN)

Using English Units (Switch to International System of Units)
Date/ Time (CST) Wind (mph) Vis. (mi) Weather Sky Cond. Temp (°F) Rel. Humidity Wind Chill (°F) Heat Index (°F) Pressure Precip. (in)
Air Dwpt 6 hour Altimeter (inHg) Sea level (inHg) 1 hr 3 hr 6 hr
Max Min
Nov 18 01:53   10 Clear CLR 72 64     76%   72 29.42 29.39      
Nov 18 00:53 SSW 21 10 Clear and Windy CLR 72 64     76%   72 29.44 29.41      
Nov 17 23:53   10 Clear CLR 72 64     76%   72 29.47 29.44      
Nov 17 22:53   10 Clear CLR 71 64     79%   72 29.5 29.48      
Nov 17 21:53 SSW 21 10 Clear and Windy CLR 71 64     79%   72 29.53 29.5      
Nov 17 20:53   10 Clear CLR 71 63     76%   71 29.55 29.52      
Nov 17 19:53 S 16 10 Clear CLR 70 63     78%     29.55 29.53      
Nov 17 18:53 S 17 10 Clear CLR 71 63     76%   71 29.56 29.53      
Nov 17 17:53 S 17 10 Clear CLR 70 63     78%     29.56 29.54      
Nov 17 16:53 S 17 10 Clear CLR 71 63     76%   71 29.57 29.54      
Nov 17 15:53 SSW 18 10 Mostly Cloudy BKN035 BKN043 73 63     71%   73 29.59 29.56      
Nov 17 14:53 S 18 10 Partly Cloudy FEW029 SCT034 71 63     76%   71 29.58 29.55      
Nov 17 14:24   10 Mostly Cloudy FEW027 BKN033 72 63     73%   72 29.59        
Nov 17 13:53   10 Cloudy OVC026 69 62     78%     29.63 29.6      
Nov 17 12:53   10 Cloudy BKN021 OVC029 68 61     78%     29.65 29.63      
Nov 17 11:53 S 21 10 Cloudy and Windy OVC019 66 61     84%     29.71 29.69      
Nov 17 10:53 SSW 18 10 Cloudy OVC017 65 60     84%     29.76 29.74      
Nov 17 09:53   10 Cloudy OVC016 64 60     87%     29.77 29.76      
Nov 17 09:43   9 Cloudy OVC016 64 60     87%     29.78        
Nov 17 08:53 S 20 8 Cloudy and Windy OVC014 62 59     90%     29.81 29.79      
Nov 17 07:53 S 18 7 Cloudy OVC014 61 58     90%     29.83 29.81      
Nov 17 07:19 S 15 7 Cloudy OVC014 61 58     90%     29.83        
Nov 17 06:53 S 16 8 Cloudy OVC015 61 58     90%     29.85 29.83      
Nov 17 06:21 SSE 14 8 Cloudy OVC012 60 57     90%     29.85        
Nov 17 05:53   8 Cloudy OVC016 60 57     90%     29.85 29.84      
Nov 17 04:53 S 17 8 Cloudy OVC015 60 56     86%     29.89 29.88      
Nov 17 03:53 S 13 8 Cloudy OVC015 59 55     87%     29.92 29.91      
Nov 17 02:53 SSE 10 10 Cloudy BKN016 OVC024 58 53     84%     29.95 29.93      
Nov 17 02:16 S 14 10 Cloudy BKN024 OVC065 57 52     83%     29.96        
Nov 17 01:53 S 13 10 Mostly Cloudy SCT018 BKN065 57 52     83%     29.94 29.93      
Nov 17 00:53 SSE 15 10 Cloudy BKN022 OVC027 57 50     77%     29.97 29.96      
Nov 17 00:06 SSE 14 10 Cloudy BKN025 BKN041 OVC070 57 50     77%     29.99        
Nov 16 23:53 S 13 10 Cloudy BKN030 BKN043 OVC070 57 49     74%     30 29.99      
Nov 16 22:53 SSE 10 10 Cloudy FEW025 BKN031 OVC039 56 46     69%     30.01 30      
Nov 16 22:29 SSE 7 10 Cloudy OVC032 56 44     64%     30.02        
Nov 16 22:20 SE 8 10 Cloudy BKN029 OVC035 55 44     66%     30.02        
Nov 16 21:53 SSE 11 10 Cloudy BKN038 BKN047 OVC070 55 43     64%     30.01 30.01      
Nov 16 20:53 SE 10 10 Mostly Cloudy BKN070 54 40     59%     30.03 30.03      
Nov 16 19:53 SE 11 10 Cloudy FEW050 OVC070 56 39     53%     30.04 30.04      
Nov 16 18:53 ESE 8 10 Cloudy FEW055 OVC070 56 40     55%     30.05 30.05      
Nov 16 17:53 ESE 6 10 Mostly Cloudy BKN070 57 38     49%     30.06 30.06      
Nov 16 16:53 ESE 7 10 Clear CLR 57 36     45%     30.06 30.06      
Nov 16 15:53 S 8 10 Clear CLR 62 35     36%     30.06 30.05      
Nov 16 14:53 SE 7 10 Clear CLR 63 32     31%     30.07 30.07      
Nov 16 13:53 SE 8 10 Clear CLR 62 32     32%     30.1 30.09      
Nov 16 12:53 SE 9 10 Clear CLR 59 32     36%     30.13 30.13      
Nov 16 11:53 ESE 9 10 Clear CLR 57 33     40%     30.16 30.16      
Nov 16 10:53 ESE 8 10 Clear CLR 54 35     49%     30.21 30.21      
Nov 16 09:53 E 7 10 Clear CLR 50 35     56% 47   30.22 30.23      
Nov 16 08:53 E 6 10 Clear CLR 43 35     73% 39   30.23 30.23      
Nov 16 07:53 ENE 7 10 Clear CLR 38 34     85% 33   30.21 30.22      
Nov 16 06:53 NE 6 10 Clear CLR 36 33     89% 31   30.21 30.22      
Nov 16 05:53 ENE 6 10 Clear CLR 36 34     92% 31   30.21 30.22      
Nov 16 04:53 ENE 5 10 Clear CLR 34 34     100% 30   30.22 30.22      
Nov 16 03:53 NE 5 10 Clear CLR 39 36     89% 36   30.21 30.21      
Nov 16 02:53 Calm 10 Clear CLR 35 35     100%     30.22 30.22      
Nov 16 01:53 Calm 10 Clear CLR 37 36     96%     30.2 30.2      
Nov 16 00:53 Calm 10 Clear CLR 38 36     92%     30.2 30.2      
Nov 15 23:53 Calm 10 Clear CLR 37 36     96%     30.2 30.2      
Nov 15 22:53 Calm 10 Clear CLR 38 35     89%     30.21 30.21      
Nov 15 21:53 Calm 10 Clear CLR 40 36     86%     30.19 30.19      
Nov 15 20:53 N 6 10 Clear CLR 42 36     79% 38   30.19 30.19      
Nov 15 19:53 Calm 10 Clear CLR 45 36     71%     30.18 30.17      
Nov 15 18:53 N 7 10 Clear CLR 50 36     58% 47   30.16 30.16      
Nov 15 17:53 N 6 10 Clear CLR 52 37     57%     30.15 30.14      
Nov 15 16:53 N 6 10 Clear CLR 54 39     57%     30.13 30.12      
Nov 15 15:53 N 14 10 Clear CLR 59 39     47%     30.12 30.11      
Nov 15 14:53 N 9 10 Clear CLR 61 41     48%     30.1 30.09      
Nov 15 13:53 N 16 10 Clear CLR 62 44     52%     30.1 30.08      
Nov 15 12:53 N 16 10 Clear CLR 61 46     58%     30.1 30.08      
Nov 15 11:53 N 17 10 Clear CLR 61 49     64%     30.09 30.08     0
Nov 15 11:28 N 16 10 Partly Cloudy SCT022 SCT026 61 52     72%     30.09        
Nov 15 10:53 NNW 13 10 Mostly Cloudy BKN020 BKN027 59 55     87%     30.09 30.08      
Nov 15 09:53 NNW 15 7 Cloudy OVC008 58 56     93%     30.08 30.07      
Nov 15 09:40 NNW 17 7 Cloudy OVC008 58 56     93%     30.08        
Nov 15 09:25 NW 10 6 Fog/Mist SCT010 BKN038 58 57     97%     30.07        
Nov 15 08:53 NW 11 5 Fog/Mist BKN008 OVC015 56 56     100%     30.06 30.05   0  
Nov 15 08:38 WNW 8 6 Fog/Mist FEW008 OVC018 56 56     100%     30.05        
Nov 15 07:53 WNW 8 5 Fog/Mist BKN022 OVC038 56 56     100%     30.03 30.02      
Nov 15 07:43 W 7 4 Fog/Mist BKN022 BKN027 OVC036 56 56     100%     30.03        
Nov 15 06:53 3 6 Fog/Mist BKN011 OVC024 55 55     100%     30 29.99 0    
Nov 15 06:08 W 6 6 Fog/Mist BKN014 BKN025 OVC036 56 56     100%     29.96   0    
Nov 15 05:55 WNW 7 6 Light Rain and Fog/Mist SCT016 BKN025 OVC036 56 56     100%     29.97   0    
Nov 15 05:53 WNW 6 6 Light Rain and Fog/Mist FEW016 BKN030 OVC039 56 56     100%     29.97 29.96 0   0
Nov 15 05:29 W 5 3 Rain and Fog/Mist SCT024 BKN040 OVC070 57 56     96%     29.96   0    
Nov 15 05:18 WSW 6 2.5 Rain and Fog/Mist SCT022 BKN038 OVC048 57 56     96%     29.96   0    
Nov 15 05:08 W 7 10 Thunderstorms SCT022 BKN039 OVC050 57 56     96%     29.96        
Nov 15 04:53 W 5 10 Cloudy FEW028 BKN042 OVC050 58 56     93%     29.93 29.92 0    
Nov 15 03:53 S 9 10 Light Rain SCT047 BKN060 OVC100 58 56     93%     29.91 29.9 0    
Nov 15 02:53 S 13 10 Cloudy BKN038 BKN049 OVC060 60 55     83%     29.93 29.92 0 0  
Jun 12 01:53 S 9 10 Clear CLR 73 65     76%   74 29.92 29.88      
Jun 11 21:53 S 10 10 Clear CLR 79 65     62%   80 29.9 29.86      
Jun 11 11:53   10 Partly Cloudy SCT032 84 71     65%   89 29.94 29.9      
Jun 11 10:53   10 Clear CLR 83 70     65%   87 29.93 29.89      
Jun 10 19:53 S 15 10 Clear CLR 81 67     62%   83 29.83 29.79      
Jun 10 17:53   10 Clear CLR 85 68     57%   88 29.82 29.79      
Jun 10 11:53   10 Clear CLR 82 67     60%   85 29.9 29.86      
Jun 09 14:53 S 13 10 Partly Cloudy SCT055 80 61     52%   81 29.91 29.89      
Jun 09 00:53 SE 3 10 Clear CLR 60 55     83%     29.94 29.91      
Jun 08 23:53 S 3 10 Clear   62 56     80%     29.94 29.92      
Jun 08 12:53 WNW 5 10 Clear CLR 79 53     41%   78 30.05 30.03      
Jun 08 06:53 Calm 10 Clear CLR 56 53     90%     30.06 30.04      
Jun 07 21:53 Calm 10 Clear CLR 64 56     75%     30.05 30.02      
Jun 07 14:53 NNE 9 10 Clear CLR 81 52     37%   80 30.06 30.03      
Jun 07 11:53 E 9 10 Mostly Clear FEW060 79 49     35%   78 30.09 30.07      
Jun 06 11:53 N 5 10 Clear CLR 82 64     55%   84 29.96 29.93      
Jun 06 10:53 N 5 10 Clear CLR 79 66     65%   80 29.96 29.92      
Notice The following observation data may not be complete
Jun 06 04:02   2 Fog/Mist CLR          %              
Jun 05 19:53 Calm 10 Mostly Cloudy BKN075 84 70     63%   88 29.83 29.79